Home   Weather   Mali Kosharyshcha   Past weeks
Flag for Ukraine

Past Weather in Mali Kosharyshcha, Ukraine — Yesterday and Last 2 Weeks

Now
55 °F

Clear.


Feels Like: 55 °F
Forecast: 76 / 47 °F
Wind: 3 mph from Southwest

Location: Kyiv
Current Time: Sep 22, 2020 at 11:38:05 pm
Latest Report: Sep 22, 2020 at 10:30 pm
Visibility: 10 mi
Pressure30.09 "Hg
Humidity: 63%
Dew Point: 43 °F
Location of Mali KosharyshchaLocation

Past Weather in Mali Kosharyshcha — Graph

°F

Mali Kosharyshcha Temperature Yesterday

Maximum temperature yesterday: 72 °F (at 3:30 pm)
Minimum temperature yesterday: 41 °F (at 1:30 am)
Average temperature yesterday: 56 °F

High & Low Weather Summary for the Past Weeks

 TemperatureHumidityPressure
High86 °F (Sep 17, 2:30 pm)100% (Sep 10, 1:30 am)30.36 "Hg (Sep 10, 1:30 am)
Low41 °F (Sep 19, 6:30 am)28% (Sep 22, 2:30 pm)29.80 "Hg (Sep 17, 4:30 pm)
Average61 °F65%30.16 "Hg
* Reported Sep 7 10:00 pm — Sep 22 10:00 pm, Mali Kosharyshcha. Weather by CustomWeather, © 2020

Note: Actual official high and low records may vary slightly from our data, if they occured in-between our weather recording intervals... More about our weather records

Mali Kosharyshcha Weather History for the Previous 24 Hours

Scroll right to see more
 ConditionsComfort  
Time TempWeatherWind HumidityBarometerVisibility
10:00 pm
Tue, Sep 22
59 °FClear.6 mph55%30.09 "Hg10 mi
9:30 pm57 °FClear.6 mph59%30.09 "Hg10 mi
9:00 pm57 °FClear.6 mph59%30.09 "Hg10 mi
8:30 pm59 °FClear.3 mph59%30.09 "Hg10 mi
8:00 pm61 °FClear.3 mph55%30.09 "Hg10 mi
7:30 pm63 °FClear.3 mph52%30.09 "Hg10 mi
7:00 pm66 °FPassing clouds.3 mph46%30.09 "HgN/A
6:30 pm72 °FPassing clouds.3 mph36%30.09 "HgN/A
6:00 pm73 °FPassing clouds.6 mph33%30.12 "HgN/A
5:30 pm75 °FPassing clouds.6 mph31%30.12 "HgN/A
5:00 pm77 °FPassing clouds.6 mph30%30.12 "HgN/A
4:30 pm77 °FPassing clouds.6 mph30%30.12 "HgN/A
4:00 pm77 °FPassing clouds.6 mph30%30.12 "HgN/A
3:30 pm77 °FPassing clouds.6 mph30%30.15 "HgN/A
3:00 pm77 °FPassing clouds.6 mph30%30.15 "HgN/A
2:30 pm77 °FSunny.6 mph28%30.15 "Hg10 mi
2:00 pm75 °FSunny.8 mph29%30.15 "Hg10 mi
1:30 pm75 °FPassing clouds.6 mph31%30.15 "HgN/A
1:00 pm75 °FPassing clouds.6 mph31%30.18 "HgN/A
12:30 pm75 °FPassing clouds.8 mph31%30.18 "HgN/A
12:00 pm73 °FPassing clouds.6 mph33%30.18 "HgN/A
11:30 am72 °FPassing clouds.6 mph38%30.18 "HgN/A
11:00 am70 °FPassing clouds.6 mph38%30.18 "HgN/A
10:30 am68 °FSunny.6 mph43%30.18 "Hg10 mi
10:00 am66 °FSunny.6 mph46%30.18 "Hg10 mi
9:30 am63 °FSunny.6 mph52%30.18 "Hg10 mi
9:00 am59 °FSunny.3 mph59%30.18 "Hg10 mi
8:30 am57 °FPassing clouds.3 mph67%30.18 "HgN/A
8:00 am52 °FSunny.No wind72%30.18 "Hg10 mi
7:30 am45 °FSunny.No wind87%30.18 "Hg10 mi
7:00 am43 °FSunny.No wind93%30.18 "Hg10 mi
6:30 am43 °FClear.No wind100%30.18 "Hg10 mi
6:00 am43 °FClear.No wind87%30.18 "Hg10 mi
5:30 am45 °FClear.No wind87%30.18 "Hg10 mi
5:00 am45 °FClear.No wind87%30.18 "Hg10 mi
4:30 am45 °FClear.No wind87%30.18 "Hg10 mi
4:00 am46 °FClear.No wind82%30.18 "Hg10 mi
3:30 am45 °FClear.No wind87%30.18 "Hg10 mi
3:00 am46 °FClear.No wind87%30.18 "Hg10 mi
2:30 am46 °FClear.No wind82%30.18 "Hg10 mi
2:00 am48 °FClear.1 mph82%30.18 "Hg10 mi
1:30 am48 °FClear.1 mph82%30.18 "Hg10 mi
1:00 am46 °FClear.1 mph87%30.18 "Hg10 mi
12:30 am46 °FPassing clouds.3 mph87%30.18 "HgN/A
12:00 am48 °FClear.1 mph82%30.18 "Hg10 mi
11:30 pm
Mon, Sep 21
48 °FClear.No wind82%30.18 "Hg10 mi
11:00 pm50 °FClear.1 mph82%30.18 "Hg10 mi
Weather by CustomWeather, © 2020

See weather overview